Chattanooga, TN

11:24 PM EST on January 19, 2018 (GMT -0500)
Lovell

Weather History for KCHA - March, 2015

Change the Weather History Date:

Saturday, March 28, 2015

  Actual Average Record
Temperature  
Mean Temperature 43 °F 56 °F  
Max Temperature 53 °F 68 °F 87 °F (1907)
Min Temperature 32 °F 44 °F 25 °F (1894)
Degree Days  
Heating Degree Days 22 10  
Month to date heating degree days 289 375  
Since 1 July heating degree days 3122 2997  
Cooling Degree Days 0 0  
Month to date cooling degree days 2 0  
Year to date cooling degree days 2 0  
Moisture  
Dew Point 15 °F    
Average Humidity 38    
Maximum Humidity 60    
Minimum Humidity 15    
Precipitation  
Precipitation 0.00 in 0.16 in 4.42 in (1951)
Month to date precipitation 3.59 4.50  
Year to date precipitation 10.58 14.25  
Snow  
Snow 0.00 in 0.00 in - ()
Month to date snowfall 0.0 1.2  
Since 1 July snowfall 9.5 3.8  
Snow Depth 0.00 in    
Sea Level Pressure  
Sea Level Pressure 30.19 in    
Wind  
Wind Speed 10 mph (NNW)    
Max Wind Speed 20 mph    
Max Gust Speed 25 mph    
Visibility 10 miles    
Events      
T = Trace of Precipitation, MM = Missing Value Source: NWS Daily Summary

Daily Weather History Graph

Daily Weather History Graph

Search for Another Location

Airport or City:

Trip Planner

Search our weather history database for the weather conditions in past years. The results will help you decide how hot, cold, wet, or windy it might be!

Date:

Astronomy

Mar. 28, 2015 Rise Set
Actual Time 7:33 AM EDT 7:58 PM EDT
Civil Twilight 7:08 AM EDT 8:24 PM EDT
Nautical Twilight 6:38 AM EDT 8:53 PM EDT
Astronomical Twilight 6:08 AM EDT 9:24 PM EDT
Moon 2:11 PM EDT (3/28) 3:25 AM EDT (3/28)
Length of Visible Light 13h 16m
Length of Day
12h 25m
Waxing Gibbous, 63% of the Moon is Illuminated
Mar 28
Waxing Gibbous
Apr 4
Full
Apr 11
Last Quarter
Apr 18
New
Apr 25
First Quarter

Hourly Weather History & Observations

Time (EDT) Temp. Windchill Dew Point Humidity Pressure Visibility Wind Dir Wind Speed Gust Speed Precip Events Conditions
12:53 AM 41.0 °F 35.8 °F 28.0 °F 60% 30.08 in 10.0 mi North 8.1 mph - N/A   Overcast
1:53 AM 39.0 °F 31.4 °F 27.0 °F 62% 30.09 in 10.0 mi NNW 12.7 mph - N/A   Scattered Clouds
2:53 AM 37.0 °F 29.8 °F 25.0 °F 62% 30.09 in 10.0 mi NNW 10.4 mph - N/A   Mostly Cloudy
3:53 AM 37.0 °F 29.8 °F 23.0 °F 57% 30.08 in 10.0 mi North 10.4 mph - N/A   Mostly Cloudy
4:53 AM 35.1 °F 25.5 °F 19.0 °F 52% 30.10 in 10.0 mi NNW 15.0 mph - N/A   Clear
5:53 AM 34.0 °F 26.6 °F 16.0 °F 48% 30.13 in 10.0 mi North 9.2 mph - N/A   Scattered Clouds
6:53 AM 33.1 °F 24.4 °F 17.1 °F 52% 30.15 in 10.0 mi North 11.5 mph - N/A   Scattered Clouds
7:53 AM 32.0 °F 24.2 °F 18.0 °F 56% 30.18 in 10.0 mi North 9.2 mph - N/A   Scattered Clouds
8:53 AM 34.0 °F 25.0 °F 17.1 °F 50% 30.19 in 10.0 mi North 12.7 mph - N/A   Scattered Clouds
9:53 AM 37.0 °F 30.4 °F 17.1 °F 44% 30.21 in 10.0 mi North 9.2 mph - N/A   Scattered Clouds
10:53 AM 39.0 °F 33.4 °F 17.1 °F 41% 30.22 in 10.0 mi North 8.1 mph - N/A   Scattered Clouds
11:53 AM 41.0 °F 35.8 °F 16.0 °F 36% 30.22 in 10.0 mi WNW 8.1 mph - N/A   Scattered Clouds
12:53 PM 45.0 °F 40.6 °F 16.0 °F 31% 30.22 in 10.0 mi North 8.1 mph - N/A   Partly Cloudy
1:53 PM 48.9 °F - 15.1 °F 26% 30.21 in 10.0 mi North 8.1 mph - N/A   Partly Cloudy
2:53 PM 50.0 °F - 12.0 °F 22% 30.20 in 10.0 mi NW 8.1 mph - N/A   Partly Cloudy
3:53 PM 51.1 °F - 10.9 °F 20% 30.18 in 10.0 mi North 13.8 mph 25.3 mph N/A   Scattered Clouds
4:53 PM 52.0 °F - 10.9 °F 19% 30.18 in 10.0 mi NNW 16.1 mph 23.0 mph N/A   Scattered Clouds
5:35 PM 51.1 °F - 7.0 °F 17% 30.18 in 10.0 mi NNW 10.4 mph - N/A   Scattered Clouds
5:53 PM 51.1 °F - 7.0 °F 17% 30.19 in 10.0 mi Variable 6.9 mph - N/A   Scattered Clouds
6:53 PM 48.9 °F - 3.9 °F 16% 30.21 in 10.0 mi North 11.5 mph - N/A   Scattered Clouds
7:53 PM 46.0 °F 40.2 °F 6.1 °F 20% 30.23 in 10.0 mi North 12.7 mph - N/A   Partly Cloudy
8:53 PM 44.1 °F 39.0 °F 10.0 °F 25% 30.25 in 10.0 mi NNW 9.2 mph - N/A   Partly Cloudy
9:53 PM 39.9 °F 35.1 °F 12.9 °F 33% 30.28 in 10.0 mi NNW 6.9 mph - N/A   Partly Cloudy
10:53 PM 39.0 °F 35.7 °F 15.1 °F 38% 30.30 in 10.0 mi North 4.6 mph - N/A   Clear
11:53 PM 39.0 °F 34.8 °F 14.0 °F 36% 30.32 in 10.0 mi North 5.8 mph - N/A   Clear